Погода в Кротовке

Россия / Самарская область     53°17′03″N   51°10′20″E
темп.,
°C
ветер,
м/с
пор.,
м/с
влажн.,
%
обл.,
%
осадки,
мм/ч
давл.,
гПа
погр.,
м
27 января, ср
ср2701:00−6ю41095100 0.0 1029268
04:00−6ююв51195100 0.0 1028330
07:00−8ююв41093100 0.0 1028251
10:00−9ю51193100 0.0 1028275
13:00−6ю6129199 0.0 1028365
16:00−6ююв71389100 0.0 1027376
19:00−6ююв71590100 0.0 1026366
22:00−6ююв61490100 0.0 1025382
28 января, чт
чт2801:00−7ююв61489100 0.0 1025355
04:00−8ююв61288100 0.0 1025314
07:00−9ююв61291100 0.0 1024313
10:00−9ююв61191100 0.0 1023339
13:00−7ююв51191100 0.0 1022389
16:00−7юв51092100 0.0 1021355
19:00−8юв51092100 0.0 1020315
22:00−8юв41091100 0.0 1020255
29 января, пт
пт2901:00−8юв4991100 0.0 1019251
04:00−8юв51191100 0.0 1017297
07:00−7юв61289100 0.0 1015361
10:00−6юв61188100 0.0 1014409
13:00−5ююв5991100 0.0 1012461
16:00−4ююв5996100 0.4 1011506
19:00−4ююв4896100 1.3 1010336
22:00−5ююв4996100 1.4 1009225
30 января, сб
сб3001:00−3ю3697100 0.9 1009241
04:00−2ю3697100 2.3 1008205
07:00−4ю499591 0.0 1008189
10:00−5ю6119460 0.0 1009345
13:00−2ю8139397 0.0 1008587
16:000ююз10169799 0.1 1008992
19:00+1ююз81598100 0.3 1009811
22:00+1юз51199100 0.9 1011504
31 января, вс
вс3101:000ююз71298100 1.1 1012557
04:000ю71298100 1.9 1013539
07:00−2ю61389100 0.3 1013365
10:00−2ю71483100 0.3 1013408
13:00−1ююв81679100 0.0 1013539
16:00−1ююв92076100 0.0 1012574
19:00−2ю8197696 0.0 1011493
22:00−2ю8168298 0.0 1011544